Regional Weather Roundup
Issued by NWS Newport/Morehead, NC

Current Version | Previous Version | Text Only | Print | Product List | Glossary On
Versions: 1 2 3 4 5 6 7 8 9 10 11 12 13 14 15 16 17 18 19 20 21 22 23 24 25 26 27 28 29 30 31 32 33 34 35 36 37 38 39 40 41 42 43 44 45 46 47 48 49 50
000
ASUS42 KMHX 241525
RWRMHX
WEATHER ROUNDUP FOR EASTERN NORTH CAROLINA
NATIONAL WEATHER SERVICE NEWPORT/MOREHEAD CITY NC
1100 AM EDT WED AUG 24 2016

NOTE: "FAIR" INDICATES FEW OR NO CLOUDS BELOW 12,000 FEET
WITH NO SIGNIFICANT WEATHER AND/OR OBSTRUCTIONS TO VISIBILITY

NCZ015>017-031-032-045>047-102-103-241600-
NORTH COAST

CITY           SKY/WX    TMP DP  RH WIND       PRES   REMARKS
EDENTON        SUNNY     80  58  48 NE8       30.30S
ELIZABETH CITY SUNNY     81  59  47 NE12      30.30S
KITTY HAWK     SUNNY     84  72  68 NE7       30.27S
MANTEO         PTSUNNY   80  69  69 NE9       30.29R

$$

NCZ045>047-081-094-103-104-241600-
CENTRAL COAST

CITY           SKY/WX    TMP DP  RH WIND       PRES   REMARKS
FRISCO         MOSUNNY   83  71  67 NE12G20   30.26R

$$

NCZ095-097-098-100-101-241600-
SOUTHERN COAST

CITY           SKY/WX    TMP DP  RH WIND       PRES   REMARKS
BEAUFORT       MOSUNNY   81  69  67 NE10G16   30.26S
CEDAR ISLAND   NOT AVBL
JACKSONVILLE   SUNNY     80  60  50 N12       30.28S
PINEY ISLAND   NOT AVBL
WILMINGTON     SUNNY     81  62  52 NE12      30.28S


$$

NCZ011>013-027>030-043-044-078>080-089-090>093-098-241600-
COASTAL PLAIN

CITY           SKY/WX    TMP DP  RH WIND       PRES   REMARKS
AHOSKIE        SUNNY     76  61  59 NE3       30.31F
CLINTON        MOSUNNY   81  63  54 N8        30.31F
ELIZABETHTOWN  SUNNY     82  60  48 N3        30.29F
GOLDSBORO      SUNNY     81  58  45 N6        30.29F
GREENVILLE     SUNNY     81  59  47 E9        30.30F
HAVELOCK       MOSUNNY   81  65  58 N8        30.29S
KENANSVILLE    NOT AVBL
KINSTON        SUNNY     79  61  53 NE7       30.31S
NEW BERN       SUNNY     79  63  57 N8        30.30S
RICHLANDS      SUNNY     79  65  62 NE7       30.30S
ROCKY MOUNT    MOSUNNY   78  61  55 VRB6      30.32S
WASHINGTON     SUNNY     78  63  58 NE9       30.30S
WHITEVILLE     SUNNY     82  61  49 NE9       30.29S

$$

AMZ130-135-150-152-154-156-158-170-250-252-270-ANZ085-086-088-633-658-670-241600-
MARINE OBSERVATIONS

STATION/POSITION TIME  TEMP    WIND        PRES    WAVE   SWELL
                       AIR SEA DIR/SP/G            HT/PER HT/PER
                 (UTC) (F)     (DEG/KT/KT) (MB)    (FT/S) (FT/S)
CHESAPEAKE LIGHT NOT AVBL
64 E VA BEACH    1450   78 81   50/ 12/ 14 1025.1    2/ 7   2/ 7
DUCK             1500   77 78   20/  9/ 10 1025.1
2 E DUCK         1411      77                N/A     2/ 4
OREGON INLET     1500   79 77   10/ 10/ 13 1025.0
13E OREGON INLT  1500      79                N/A     3/ 4   2/13
HATTERAS CG      1500   79 79   30/ 12/ 17 1024.1
DIAMOND BUOY     1450   82 84  100/ 10/ 12 1024.0    3/ 6   3/ 6
CAPE LOOKOUT     1500   80      10/ 11/ 14 1024.3
BEAUFORT LAB     1500   79 80   20/  8/ 15 1024.3
30 SE NEW RVR IN 1508   79 84   40/ 12/ 16 1024.5
30 SE NEW RVR IN 1425      84                N/A     3/ 4
27 SE WRIGHTSVLE 1508   78 84   30/ 12/ 17 1024.8
5 SE WRIGHTSVLE  1508   77 83   30/ 12/ 16 1026.2
225 S CAPE HAT   1450   82 85   50/ 16/ 17 1021.7    5/ 6   2/11
41 SE CHARLESTON 1450   83 84   50/ 16/ 17 1023.2    4/ 5   2/ 7

$$




USA.gov is the U.S. government's official web portal to all federal, state and local government web resources and services.